GLO2175 SBKG-SBSV

Flight info

Callsign GLO2175
Flight time 0h 56m
Altitude 38000
Route DCT OPTUR DCT ASGIK DCT
Aircraft B738/M-SDFGIKLORWXY/LB1

Departure

Time 2026-05-08 05:59
Airport Presidente João Suassuna Airport (SBKG)

Arrival

Time 2026-05-08 06:56
Airport Deputado Luiz Eduardo Magalhães International Airport (SBSV)
Time Latitude Longitude Altitude Speed Heading
2026-05-08 05:48 -7.26933 -35.89417 1643 ft 0 kts 34°
2026-05-08 05:53 -7.26940 -35.89421 1650 ft 4 kts 26°
2026-05-08 05:53 -7.26960 -35.89424 1647 ft 4 kts 319°
2026-05-08 05:53 -7.26975 -35.89407 1649 ft 4 kts 305°
2026-05-08 05:53 -7.26988 -35.89388 1648 ft 0 kts 305°
2026-05-08 05:55 -7.26988 -35.89389 1648 ft 0 kts 305°
2026-05-08 05:55 -7.26982 -35.89397 1647 ft 3 kts 305°
2026-05-08 05:56 -7.26972 -35.89429 1645 ft 6 kts 253°
2026-05-08 05:56 -7.27002 -35.89456 1640 ft 6 kts 214°
2026-05-08 05:56 -7.27033 -35.89484 1640 ft 6 kts 245°
2026-05-08 05:56 -7.27014 -35.89528 1641 ft 11 kts 305°
2026-05-08 05:57 -7.26951 -35.89616 1649 ft 20 kts 305°
2026-05-08 05:57 -7.26858 -35.89749 1646 ft 26 kts 305°
2026-05-08 05:57 -7.26756 -35.89896 1643 ft 25 kts 305°
2026-05-08 05:57 -7.26660 -35.90032 1644 ft 23 kts 305°
2026-05-08 05:58 -7.26602 -35.90163 1644 ft 13 kts 279°
2026-05-08 05:58 -7.26570 -35.90175 1646 ft 4 kts 50°
2026-05-08 05:58 -7.26581 -35.90145 1649 ft 6 kts 125°
2026-05-08 05:58 -7.26675 -35.90010 1649 ft 60 kts 125°
2026-05-08 05:59 -7.27078 -35.89433 1641 ft 139 kts 125°
2026-05-08 05:59 -7.27693 -35.88546 2193 ft 154 kts 124°
2026-05-08 05:59 -7.28277 -35.87690 3165 ft 147 kts 125°
2026-05-08 05:59 -7.29188 -35.87089 3475 ft 181 kts 171°
2026-05-08 06:00 -7.30523 -35.87386 3762 ft 215 kts 199°
2026-05-08 06:00 -7.31997 -35.87987 3975 ft 242 kts 198°
2026-05-08 06:00 -7.33650 -35.88642 4261 ft 265 kts 198°
2026-05-08 06:00 -7.35381 -35.89330 4909 ft 275 kts 199°
2026-05-08 06:01 -7.37166 -35.90045 5842 ft 277 kts 198°
2026-05-08 06:01 -7.38963 -35.90766 6715 ft 280 kts 198°
2026-05-08 06:01 -7.40790 -35.91499 7530 ft 285 kts 198°
2026-05-08 06:01 -7.42641 -35.92242 8350 ft 288 kts 198°
2026-05-08 06:02 -7.44519 -35.92995 9182 ft 293 kts 198°
2026-05-08 06:02 -7.46422 -35.93759 9999 ft 297 kts 198°
2026-05-08 06:02 -7.48385 -35.94545 10525 ft 312 kts 199°
2026-05-08 06:02 -7.50489 -35.95386 10694 ft 337 kts 199°
2026-05-08 06:03 -7.52746 -35.96288 10860 ft 360 kts 199°
2026-05-08 06:03 -7.55138 -35.97246 11059 ft 379 kts 199°
2026-05-08 06:03 -7.57619 -35.98243 11520 ft 387 kts 199°
2026-05-08 06:03 -7.60121 -35.99251 12168 ft 389 kts 200°
2026-05-08 06:04 -7.62646 -36.00268 12801 ft 392 kts 200°
2026-05-08 06:04 -7.65183 -36.01289 13408 ft 395 kts 200°
2026-05-08 06:04 -7.67748 -36.02321 13980 ft 398 kts 200°
2026-05-08 06:04 -7.70325 -36.03357 14471 ft 402 kts 200°
2026-05-08 06:05 -7.72933 -36.04406 14964 ft 405 kts 200°
2026-05-08 06:05 -7.75557 -36.05461 15485 ft 407 kts 201°
2026-05-08 06:05 -7.78196 -36.06521 15994 ft 410 kts 201°
2026-05-08 06:05 -7.80816 -36.07575 16478 ft 412 kts 201°
2026-05-08 06:06 -7.83494 -36.08652 16956 ft 415 kts 201°
2026-05-08 06:06 -7.86184 -36.09733 17430 ft 418 kts 201°
2026-05-08 06:06 -7.88895 -36.10823 17905 ft 420 kts 202°
2026-05-08 06:06 -7.91615 -36.11917 18330 ft 423 kts 202°
2026-05-08 06:07 -7.94367 -36.13024 18690 ft 426 kts 202°
2026-05-08 06:07 -7.97139 -36.14139 19028 ft 430 kts 202°
2026-05-08 06:07 -7.99935 -36.15264 19355 ft 434 kts 202°
2026-05-08 06:07 -8.02751 -36.16398 19692 ft 437 kts 202°
2026-05-08 06:08 -8.05587 -36.17539 20031 ft 440 kts 202°
2026-05-08 06:08 -8.08452 -36.18692 20358 ft 444 kts 203°
2026-05-08 06:08 -8.11327 -36.19850 20692 ft 447 kts 203°
2026-05-08 06:08 -8.14233 -36.21020 21011 ft 450 kts 203°
2026-05-08 06:09 -8.17111 -36.22179 21316 ft 453 kts 203°
2026-05-08 06:09 -8.20054 -36.23365 21623 ft 456 kts 203°
2026-05-08 06:09 -8.23010 -36.24555 21916 ft 459 kts 203°
2026-05-08 06:09 -8.25982 -36.25753 22231 ft 462 kts 204°
2026-05-08 06:10 -8.28983 -36.26962 22524 ft 465 kts 204°
2026-05-08 06:10 -8.31997 -36.28176 22818 ft 467 kts 204°
2026-05-08 06:10 -8.35025 -36.29397 23098 ft 470 kts 204°
2026-05-08 06:10 -8.38070 -36.30625 23366 ft 473 kts 204°
2026-05-08 06:11 -8.41132 -36.31860 23620 ft 475 kts 204°
2026-05-08 06:11 -8.44214 -36.33103 23851 ft 477 kts 204°
2026-05-08 06:11 -8.47305 -36.34349 24121 ft 478 kts 204°
2026-05-08 06:11 -8.50398 -36.35596 24399 ft 478 kts 204°
2026-05-08 06:12 -8.53489 -36.36843 24659 ft 479 kts 204°
2026-05-08 06:12 -8.56590 -36.38094 24911 ft 480 kts 205°
2026-05-08 06:12 -8.59651 -36.39329 25167 ft 481 kts 205°
2026-05-08 06:12 -8.62762 -36.40585 25405 ft 482 kts 205°
2026-05-08 06:13 -8.65877 -36.41843 25631 ft 483 kts 205°
2026-05-08 06:13 -8.68998 -36.43104 25855 ft 484 kts 205°
2026-05-08 06:13 -8.72130 -36.44369 26077 ft 485 kts 205°
2026-05-08 06:13 -8.75272 -36.45638 26299 ft 486 kts 205°
2026-05-08 06:14 -8.78425 -36.46912 26513 ft 487 kts 205°
2026-05-08 06:14 -8.81574 -36.48185 26713 ft 488 kts 205°
2026-05-08 06:14 -8.84732 -36.49461 26919 ft 489 kts 205°
2026-05-08 06:14 -8.87895 -36.50740 27186 ft 489 kts 205°
2026-05-08 06:15 -8.91049 -36.52015 27393 ft 489 kts 205°
2026-05-08 06:15 -8.93146 -36.52863 27508 ft 490 kts 205°
2026-05-08 06:15 -8.96331 -36.54152 27667 ft 492 kts 205°
2026-05-08 06:15 -8.99505 -36.55436 27857 ft 492 kts 205°
2026-05-08 06:16 -9.02689 -36.56724 28124 ft 491 kts 205°
2026-05-08 06:16 -9.06877 -36.58419 28526 ft 489 kts 205°
2026-05-08 06:16 -9.09014 -36.59283 28730 ft 488 kts 205°
2026-05-08 06:16 -9.12162 -36.60558 28996 ft 487 kts 205°
2026-05-08 06:17 -9.18414 -36.63092 29564 ft 485 kts 205°
2026-05-08 06:17 -9.21543 -36.64359 29852 ft 484 kts 205°
2026-05-08 06:17 -9.24642 -36.65714 30127 ft 482 kts 209°
2026-05-08 06:18 -9.27631 -36.67251 30359 ft 480 kts 211°
2026-05-08 06:18 -9.30529 -36.68835 30591 ft 479 kts 212°
2026-05-08 06:18 -9.33451 -36.70465 30858 ft 478 kts 212°
2026-05-08 06:18 -9.36368 -36.72091 31126 ft 477 kts 212°
2026-05-08 06:19 -9.39286 -36.73704 31376 ft 477 kts 212°
2026-05-08 06:19 -9.42207 -36.75304 31633 ft 476 kts 212°
2026-05-08 06:19 -9.45124 -36.76889 31928 ft 475 kts 212°
2026-05-08 06:19 -9.48030 -36.78461 32220 ft 474 kts 212°
2026-05-08 06:20 -9.50907 -36.80014 32483 ft 474 kts 212°
2026-05-08 06:20 -9.53819 -36.81584 32745 ft 473 kts 212°
2026-05-08 06:20 -9.56725 -36.83153 33027 ft 473 kts 212°
2026-05-08 06:20 -9.59631 -36.84720 33317 ft 472 kts 212°
2026-05-08 06:21 -9.62522 -36.86281 33612 ft 471 kts 212°
2026-05-08 06:21 -9.65416 -36.87845 33892 ft 471 kts 212°
2026-05-08 06:21 -9.68315 -36.89412 34163 ft 470 kts 212°
2026-05-08 06:21 -9.71203 -36.90973 34429 ft 469 kts 212°
2026-05-08 06:22 -9.74071 -36.92524 34699 ft 468 kts 212°
2026-05-08 06:22 -9.76949 -36.94080 34933 ft 467 kts 212°
2026-05-08 06:22 -9.79781 -36.95612 35150 ft 467 kts 212°
2026-05-08 06:22 -9.82644 -36.97162 35400 ft 466 kts 212°
2026-05-08 06:23 -9.85514 -36.98714 35662 ft 465 kts 212°
2026-05-08 06:23 -9.88371 -37.00261 35908 ft 465 kts 212°
2026-05-08 06:23 -9.91223 -37.01805 36181 ft 463 kts 212°
2026-05-08 06:23 -9.94064 -37.03343 36427 ft 462 kts 212°
2026-05-08 06:24 -9.96907 -37.04883 36644 ft 462 kts 212°
2026-05-08 06:24 -9.99719 -37.06407 36840 ft 462 kts 212°
2026-05-08 06:24 -10.02548 -37.07940 37080 ft 462 kts 212°
2026-05-08 06:24 -10.05384 -37.09477 37319 ft 461 kts 212°
2026-05-08 06:25 -10.08210 -37.11008 37543 ft 460 kts 212°
2026-05-08 06:25 -10.11038 -37.12542 37747 ft 460 kts 212°
2026-05-08 06:25 -10.13867 -37.14076 37953 ft 460 kts 212°
2026-05-08 06:25 -10.16697 -37.15611 37977 ft 462 kts 212°
2026-05-08 06:26 -10.22333 -37.18669 37991 ft 461 kts 212°
2026-05-08 06:26 -10.27968 -37.21725 37991 ft 458 kts 212°
2026-05-08 06:27 -10.33568 -37.24765 37993 ft 454 kts 212°
2026-05-08 06:27 -10.39130 -37.27787 37988 ft 452 kts 212°
2026-05-08 06:28 -10.44672 -37.30799 37996 ft 451 kts 212°
2026-05-08 06:28 -10.50207 -37.33808 37996 ft 451 kts 212°
2026-05-08 06:29 -10.55729 -37.36812 37999 ft 452 kts 212°
2026-05-08 06:29 -10.61291 -37.39839 37998 ft 453 kts 212°
2026-05-08 06:30 -10.66864 -37.42872 37997 ft 455 kts 212°
2026-05-08 06:30 -10.72449 -37.45913 37999 ft 456 kts 212°
2026-05-08 06:31 -10.78049 -37.48964 38002 ft 457 kts 211°
2026-05-08 06:31 -10.83660 -37.52022 38001 ft 457 kts 211°
2026-05-08 06:32 -10.89216 -37.55050 37992 ft 456 kts 211°
2026-05-08 06:32 -10.94798 -37.58095 37996 ft 455 kts 211°
2026-05-08 06:33 -11.00374 -37.61137 37996 ft 454 kts 211°
2026-05-08 06:33 -11.05940 -37.64176 38006 ft 453 kts 211°
2026-05-08 06:34 -11.11520 -37.67225 37417 ft 458 kts 211°
2026-05-08 06:34 -11.14312 -37.68751 36832 ft 455 kts 211°
2026-05-08 06:34 -11.17098 -37.70272 36230 ft 454 kts 211°
2026-05-08 06:35 -11.19880 -37.71793 35587 ft 454 kts 211°
2026-05-08 06:35 -11.22674 -37.73321 34900 ft 456 kts 211°
2026-05-08 06:35 -11.25487 -37.74860 34181 ft 458 kts 211°
2026-05-08 06:35 -11.28267 -37.76381 33390 ft 461 kts 211°
2026-05-08 06:36 -11.31109 -37.77936 32618 ft 462 kts 211°
2026-05-08 06:36 -11.33946 -37.79488 31859 ft 463 kts 211°
2026-05-08 06:36 -11.36790 -37.81045 31047 ft 464 kts 211°
2026-05-08 06:36 -11.39615 -37.82592 30236 ft 466 kts 211°
2026-05-08 06:37 -11.42482 -37.84162 29259 ft 469 kts 211°
2026-05-08 06:37 -11.45363 -37.85740 28290 ft 469 kts 210°
2026-05-08 06:37 -11.48282 -37.87250 27270 ft 472 kts 207°
2026-05-08 06:37 -11.51282 -37.88640 26279 ft 475 kts 205°
2026-05-08 06:38 -11.54305 -37.89967 25567 ft 470 kts 205°
2026-05-08 06:38 -11.57303 -37.91263 24866 ft 466 kts 205°
2026-05-08 06:38 -11.60277 -37.92551 24164 ft 463 kts 205°
2026-05-08 06:38 -11.63227 -37.93841 23442 ft 460 kts 205°
2026-05-08 06:39 -11.66157 -37.95135 22646 ft 456 kts 205°
2026-05-08 06:39 -11.69049 -37.96420 21938 ft 451 kts 204°
2026-05-08 06:39 -11.71873 -37.97679 21257 ft 446 kts 204°
2026-05-08 06:39 -11.74701 -37.98944 20584 ft 441 kts 204°
2026-05-08 06:40 -11.77497 -38.00194 19918 ft 437 kts 204°
2026-05-08 06:40 -11.80274 -38.01437 19238 ft 434 kts 204°
2026-05-08 06:40 -11.83033 -38.02672 18562 ft 431 kts 204°
2026-05-08 06:40 -11.85778 -38.03900 17825 ft 429 kts 204°
2026-05-08 06:41 -11.88505 -38.05121 17124 ft 425 kts 203°
2026-05-08 06:41 -11.91193 -38.06324 16453 ft 420 kts 203°
2026-05-08 06:41 -11.93861 -38.07519 15796 ft 417 kts 202°
2026-05-08 06:41 -11.96518 -38.08708 15122 ft 414 kts 202°
2026-05-08 06:42 -11.99122 -38.09874 14470 ft 412 kts 202°
2026-05-08 06:42 -12.01744 -38.11048 13815 ft 411 kts 202°
2026-05-08 06:42 -12.04360 -38.12220 13089 ft 409 kts 201°
2026-05-08 06:42 -12.06956 -38.13383 12427 ft 405 kts 201°
2026-05-08 06:43 -12.09539 -38.14540 11784 ft 402 kts 201°
2026-05-08 06:43 -12.12065 -38.15672 11285 ft 396 kts 202°
2026-05-08 06:43 -12.14540 -38.16783 11076 ft 382 kts 201°
2026-05-08 06:43 -12.16932 -38.17857 10905 ft 368 kts 201°
2026-05-08 06:44 -12.19235 -38.18891 10746 ft 356 kts 201°
2026-05-08 06:44 -12.21466 -38.19892 10595 ft 344 kts 201°
2026-05-08 06:44 -12.23634 -38.20865 10451 ft 333 kts 201°
2026-05-08 06:44 -12.25727 -38.21804 10312 ft 323 kts 201°
2026-05-08 06:45 -12.27735 -38.22705 10181 ft 314 kts 201°
2026-05-08 06:45 -12.29706 -38.23590 10046 ft 305 kts 201°
2026-05-08 06:45 -12.31626 -38.24451 9966 ft 295 kts 201°
2026-05-08 06:45 -12.33530 -38.25305 9512 ft 299 kts 201°
2026-05-08 06:46 -12.35409 -38.26147 9169 ft 299 kts 201°
2026-05-08 06:46 -12.37308 -38.26999 8863 ft 297 kts 201°
2026-05-08 06:46 -12.39196 -38.27847 8547 ft 296 kts 201°
2026-05-08 06:46 -12.41074 -38.28691 8238 ft 294 kts 200°
2026-05-08 06:47 -12.42945 -38.29531 7931 ft 292 kts 200°
2026-05-08 06:47 -12.44813 -38.30371 7626 ft 291 kts 200°
2026-05-08 06:47 -12.46664 -38.31203 7319 ft 290 kts 200°
2026-05-08 06:47 -12.48492 -38.32025 7012 ft 289 kts 200°
2026-05-08 06:48 -12.50336 -38.32853 6705 ft 289 kts 200°
2026-05-08 06:48 -12.52181 -38.33683 6391 ft 288 kts 200°
2026-05-08 06:48 -12.53992 -38.34498 6084 ft 287 kts 200°
2026-05-08 06:48 -12.55820 -38.35320 5766 ft 286 kts 200°
2026-05-08 06:49 -12.57642 -38.36140 5451 ft 285 kts 200°
2026-05-08 06:49 -12.59452 -38.36954 5160 ft 283 kts 200°
2026-05-08 06:49 -12.61253 -38.37765 4865 ft 281 kts 200°
2026-05-08 06:49 -12.63036 -38.38568 4588 ft 279 kts 200°
2026-05-08 06:50 -12.64812 -38.39367 4294 ft 278 kts 200°
2026-05-08 06:50 -12.66574 -38.40157 4008 ft 274 kts 200°
2026-05-08 06:50 -12.68292 -38.40857 3894 ft 265 kts 198°
2026-05-08 06:50 -12.69987 -38.41528 3782 ft 257 kts 198°
2026-05-08 06:51 -12.71632 -38.42183 3688 ft 250 kts 198°
2026-05-08 06:51 -12.73231 -38.42822 3569 ft 242 kts 198°
2026-05-08 06:51 -12.74766 -38.43438 3473 ft 231 kts 198°
2026-05-08 06:51 -12.76235 -38.44002 3224 ft 224 kts 191°
2026-05-08 06:52 -12.77723 -38.43933 2977 ft 210 kts 155°
2026-05-08 06:52 -12.78967 -38.43229 2782 ft 201 kts 143°
2026-05-08 06:52 -12.80074 -38.42399 2572 ft 194 kts 142°
2026-05-08 06:52 -12.81146 -38.41585 2343 ft 189 kts 142°
2026-05-08 06:53 -12.82197 -38.40790 2097 ft 185 kts 142°
2026-05-08 06:53 -12.83222 -38.40022 1853 ft 181 kts 142°
2026-05-08 06:53 -12.84209 -38.39281 1626 ft 173 kts 142°
2026-05-08 06:53 -12.85143 -38.38581 1431 ft 158 kts 142°
2026-05-08 06:54 -12.85990 -38.37949 1237 ft 142 kts 142°
2026-05-08 06:54 -12.86794 -38.37348 1035 ft 142 kts 143°
2026-05-08 06:54 -12.87589 -38.36754 846 ft 141 kts 143°
2026-05-08 06:54 -12.88381 -38.36160 652 ft 141 kts 143°
2026-05-08 06:55 -12.89175 -38.35564 450 ft 141 kts 142°
2026-05-08 06:55 -12.89960 -38.34976 257 ft 141 kts 143°
2026-05-08 06:55 -12.90749 -38.34396 80 ft 139 kts 143°
2026-05-08 06:55 -12.91401 -38.33909 45 ft 68 kts 144°
2026-05-08 06:56 -12.91647 -38.33726 45 ft 25 kts 144°
2026-05-08 06:56 -12.91803 -38.33609 46 ft 27 kts 143°
2026-05-08 06:56 -12.91828 -38.33530 44 ft 12 kts 45°
2026-05-08 06:56 -12.91767 -38.33468 43 ft 13 kts 91°
2026-05-08 06:57 -12.91829 -38.33404 43 ft 13 kts 129°
2026-05-08 06:57 -12.91826 -38.33317 43 ft 12 kts 78°
2026-05-08 06:57 -12.91810 -38.33232 43 ft 12 kts 79°
2026-05-08 06:57 -12.91769 -38.33165 43 ft 12 kts 21°
2026-05-08 06:58 -12.91693 -38.33135 43 ft 11 kts 21°
2026-05-08 06:58 -12.91617 -38.33125 43 ft 11 kts 347°
2026-05-08 06:58 -12.91542 -38.33140 43 ft 11 kts 351°
2026-05-08 06:58 -12.91474 -38.33144 43 ft 4 kts
2026-05-08 06:59 -12.91452 -38.33165 43 ft 4 kts 298°
2026-05-08 06:59 -12.91440 -38.33194 43 ft 4 kts 293°
2026-05-08 06:59 -12.91437 -38.33201 43 ft 0 kts 293°